1532066400.47,55143,17.06,73956.5,8.45,8.51,8.61,0,*71
1532066401.7,55144,17.13,73958.5,8.45,8.47,8.51,0,*72
1532066402.93,55145,17.06,73958.8,8.45,8.51,8.59,0,*7C
1532066404.16,55146,17.13,73960.3,8.47,8.59,8.61,0,*7E
1532066405.37,55147,17.06,73956.5,8.45,8.59,8.61,0,*7D
1532066406.58,55148,17.13,73960.3,8.47,8.61,8.61,0,*7B
1532066407.75,55149,17.13,73960.3,8.49,8.61,8.65,0,*70
1532066409.01,55150,17.13,73960.3,8.47,8.59,8.59,0,*72
1532066410.23,55151,17.13,73962.8,8.47,8.61,8.71,0,*72
1532066411.46,55152,17.06,73956.0,8.49,8.37,8.37,0,*7E
1532066412.65,55153,17.06,73958.5,8.49,8.27,8.27,0,*7F
1532066413.88,55154,17.06,73956.3,8.49,8.37,8.41,0,*79
1532066415.12,55155,17.13,73960.8,8.49,8.55,8.55,0,*79
1532066416.31,55156,17.13,73960.3,8.49,8.65,8.71,0,*7F
1532066417.54,55157,17.06,73956.3,8.49,8.29,8.37,0,*74
1532066418.72,55158,17.13,73962.5,8.49,8.19,8.19,0,*74
1532066419.96,55159,17.13,73962.5,8.49,8.41,8.41,0,*75
1532066421.19,55160,17.13,73958.8,8.49,8.55,8.55,0,*7F
1532066422.39,55161,17.13,73958.8,8.49,8.61,8.71,0,*7F
1532066423.59,55162,17.13,73960.5,8.51,8.69,8.69,0,*74
1532066424.77,55163,17.13,73960.0,8.49,8.61,8.61,0,*7C
1532066426.02,55164,17.13,73962.3,8.51,8.51,8.59,0,*7A
1532066427.27,55165,17.13,73962.3,8.51,8.51,8.51,0,*73
1532066428.52,55166,17.13,73960.3,8.51,8.33,8.33,0,*70
1532066429.77,55167,17.13,73958.5,8.51,8.51,8.51,0,*71
1532066431.02,55168,17.13,73960.5,8.51,8.51,8.51,0,*7E
1532066432.23,55169,17.06,73958.0,8.49,8.13,8.15,0,*70
1532066433.42,55170,17.13,73960.5,8.49,8.19,8.27,0,*73
1532066434.64,55171,17.06,73960.0,8.49,8.29,8.41,0,*71
1532066435.86,55172,17.13,73962.0,8.51,8.45,8.51,0,*70
1532066437.1,55173,17.13,73962.5,8.49,8.41,8.41,0,*7D
1532066438.3,55174,17.13,73962.3,8.51,8.19,8.23,0,*7A
1532066439.49,55175,17.13,73962.8,8.49,8.15,8.15,0,*7B
1532066440.69,55176,17.13,73962.8,8.51,8.19,8.23,0,*78
1532066441.92,55177,17.06,73958.8,8.53,8.41,8.41,0,*72
1532066443.1,55178,17.06,73958.0,8.49,8.19,8.23,0,*7F
1532066444.36,55179,17.06,73958.8,8.51,8.33,8.33,0,*7E
1532066445.54,55180,17.13,73960.5,8.49,8.19,8.27,0,*7C
1532066446.74,55181,17.13,73960.3,8.49,7.87,7.97,0,*71
1532066447.92,55182,17.13,73958.8,8.49,8.09,8.09,0,*73
1532066449.12,55183,17.13,73960.3,8.51,8.09,8.09,0,*7B
1532066450.35,55184,17.13,73962.8,8.49,7.83,7.87,0,*71
1532066451.58,55185,17.13,73960.3,8.47,8.13,8.05,0,*7D
1532066452.84,55186,17.13,73960.3,8.47,8.37,8.37,0,*79
1532066454.09,55187,17.13,73962.0,8.47,8.33,8.37,0,*7C
1532066455.3,55188,17.13,73958.0,8.47,8.01,8.05,0,*73
1532066456.53,55189,17.13,73960.0,8.47,8.05,8.13,0,*71
1532066457.72,55190,17.06,73956.5,8.49,8.19,8.27,0,*7D
1532066458.97,55191,17.13,73962.5,8.47,8.33,8.37,0,*7B
1532066460.23,55192,17.13,73960.3,8.47,8.51,8.51,0,*7C
1532066461.46,55193,17.13,73962.3,8.47,8.59,8.61,0,*76
1532066462.72,55194,17.06,73958.8,8.47,8.59,8.59,0,*7A
1532066463.92,55195,17.13,73960.8,8.47,8.45,8.45,0,*7B
1532066465.15,55196,17.13,73960.5,8.47,8.37,8.45,0,*7D
1532066466.39,55197,17.13,73960.5,8.47,8.37,8.45,0,*7C
1532066467.62,55198,17.13,73962.3,8.49,8.47,8.51,0,*7F
1532066468.85,55199,17.13,73960.3,8.49,8.47,8.47,0,*79
1532066470.08,55200,17.13,73962.0,8.49,8.55,8.55,0,*7A
1532066471.34,55201,17.13,73962.0,8.51,8.59,8.51,0,*7A
1532066472.6,55202,17.06,73958.3,8.55,8.59,8.55,0,*79
1532066473.85,55203,17.13,73958.8,8.51,8.51,8.51,0,*70
1532066475.1,55204,17.13,73958.8,8.51,8.51,8.51,0,*77
1532066476.33,55205,17.13,73960.8,8.49,8.37,8.37,0,*7F
1532066477.58,55206,17.13,73962.3,8.51,8.41,8.41,0,*75
1532066478.8,55207,17.13,73962.3,8.49,8.29,8.29,0,*7D
1532066480.03,55208,17.13,73958.5,8.49,8.41,8.47,0,*74
1532066481.27,55209,17.06,73956.8,8.49,8.47,8.55,0,*70
1532066482.52,55210,17.06,73958.5,8.51,8.51,8.51,0,*72
1532066483.74,55211,17.13,73958.8,8.49,8.51,8.51,0,*7A
1532066485.0,55212,17.06,73960.0,8.51,8.55,8.59,0,*7C
1532066486.21,55213,17.13,73962.0,8.53,8.45,8.51,0,*76
1532066487.46,55214,17.06,73958.5,8.51,8.55,8.59,0,*7A
1532066488.69,55215,17.06,73958.5,8.49,8.47,8.47,0,*7E
1532066489.94,55216,17.13,73960.0,8.51,8.51,8.51,0,*74
1532066491.18,55217,17.13,73956.8,8.53,8.55,8.59,0,*7B
1532066492.41,55218,17.13,73958.8,8.53,8.51,8.55,0,*7C
1532066493.64,55219,17.13,73960.0,8.53,8.51,8.51,0,*79
1532066494.85,55220,17.13,73960.3,8.53,8.59,8.65,0,*7C
1532066496.02,55221,17.13,73960.3,8.53,8.65,8.65,0,*72
1532066497.23,55222,17.13,73956.8,8.53,8.59,8.65,0,*7E
1532066498.43,55223,17.13,73960.8,8.53,8.79,8.71,0,*78
1532066499.66,55224,17.13,73958.5,8.55,8.69,8.71,0,*78
1532066500.83,55225,17.13,73960.3,8.53,8.65,8.65,0,*76
1532066502.05,55226,17.13,73962.0,8.55,8.71,8.69,0,*7A
1532066503.28,55227,17.13,73962.3,8.55,8.71,8.79,0,*7A
1532066504.54,55228,17.13,73964.0,8.55,8.55,8.59,0,*71
1532066505.76,55229,17.13,73962.5,8.55,8.45,8.47,0,*7E
1532066507.01,55230,17.13,73960.5,8.55,8.47,8.59,0,*7B
1532066508.21,55231,17.13,73960.3,8.55,8.61,8.61,0,*75
1532066509.44,55232,17.13,73962.3,8.55,8.45,8.47,0,*74
1532066510.67,55233,17.13,73960.8,8.55,8.23,8.37,0,*72
1532066511.87,55234,17.13,73958.8,8.55,8.45,8.45,0,*70
1532066513.07,55235,17.13,73958.0,8.55,8.45,8.45,0,*71
1532066514.28,55236,17.06,73956.3,8.53,8.23,8.33,0,*75
1532066515.53,55237,17.13,73960.3,8.55,8.47,8.47,0,*73
1532066516.76,55238,17.13,73958.8,8.55,8.59,8.61,0,*77
1532066517.98,55239,17.13,73960.5,8.55,8.69,8.71,0,*74
1532066519.25,55240,17.06,73956.3,8.55,8.55,8.55,0,*73
1532066520.5,55241,17.06,73956.5,8.55,8.37,8.33,0,*76
1532066521.7,55242,17.13,73962.0,8.53,8.45,8.51,0,*72
1532066522.9,55243,17.13,73960.3,8.55,8.61,8.61,0,*70
1532066524.1,55244,17.06,73956.0,8.55,8.61,8.69,0,*7F
1532066525.3,55245,17.13,73962.0,8.55,8.69,8.69,0,*76
1532066526.5,55246,17.13,73960.5,8.55,8.61,8.61,0,*75
1532066527.72,55247,17.13,73962.3,8.55,8.61,8.59,0,*7F
1532066528.9,55248,17.06,73958.0,8.57,8.61,8.61,0,*79
1532066530.07,55249,17.13,73962.8,8.57,8.61,8.61,0,*78
1532066531.25,55250,17.13,73960.0,8.57,8.61,8.61,0,*70
1532066532.5,55251,17.13,73960.3,8.59,8.75,8.71,0,*7B
1532066533.75,55252,17.13,73960.8,8.59,8.71,8.75,0,*78
1532066534.98,55253,17.13,73962.5,8.59,8.59,8.61,0,*76
1532066536.24,55254,17.13,73966.5,8.59,8.41,8.41,0,*7A
1532066537.42,55255,17.13,73958.8,8.57,8.61,8.61,0,*75
1532066538.59,55256,17.13,73962.0,8.57,8.61,8.61,0,*76
1532066539.79,55257,17.13,73962.0,8.57,8.69,8.71,0,*7E
1532066541.04,55258,17.06,73958.8,8.59,8.71,8.75,0,*72
1532066542.26,55259,17.06,73958.0,8.59,8.65,8.71,0,*72
1532066543.52,55260,17.13,73960.5,8.59,8.59,8.59,0,*7D
1532066544.75,55261,17.13,73960.3,8.59,8.61,8.59,0,*77
1532066545.94,55262,17.13,73962.8,8.59,8.61,8.65,0,*7B
1532066547.18,55263,17.13,73962.5,8.57,8.59,8.59,0,*70
1532066548.4,55264,17.13,73960.5,8.59,8.65,8.59,0,*76
1532066549.62,55265,17.13,73960.3,8.59,8.65,8.71,0,*7D
1532066550.85,55266,17.13,73960.8,8.59,8.65,8.75,0,*7A
1532066552.1,55267,17.13,73960.5,8.59,8.51,8.51,0,*7A
1532066553.3,55268,17.06,73956.0,8.59,7.97,8.05,0,*71
1532066554.5,55269,17.13,73962.0,8.57,8.01,8.13,0,*79
1532066555.76,55270,17.13,73960.8,8.59,8.51,8.51,0,*7C
1532066557.01,55271,17.13,73962.3,8.59,8.51,8.59,0,*75
1532066558.26,55272,17.13,73964.0,8.59,8.29,8.41,0,*70
1532066559.49,55273,17.13,73960.0,8.59,7.95,7.97,0,*7D
1532066560.67,55274,17.13,73962.0,8.57,8.15,8.15,0,*76
1532066561.9,55275,17.13,73962.5,8.57,8.47,8.47,0,*77
1532066563.11,55276,17.06,73960.8,8.57,8.47,8.45,0,*76
1532066564.34,55277,17.13,73960.3,8.57,8.55,8.59,0,*79
1532066565.55,55278,17.13,73960.0,8.57,8.13,8.23,0,*79
1532066566.81,55279,17.13,73962.0,8.59,7.95,7.95,0,*75
1532066568.04,55280,17.13,73962.8,8.57,7.95,7.95,0,*7D
1532066569.27,55281,17.13,73964.8,8.57,7.95,7.95,0,*7C
1532066570.53,55282,17.13,73962.0,8.55,7.95,7.95,0,*7D
1532066571.77,55283,17.13,73962.0,8.53,7.65,7.77,0,*79
1532066572.94,55284,17.13,73960.3,8.53,7.33,7.45,0,*7C
1532066574.11,55285,17.13,73960.8,8.53,7.33,7.33,0,*7C
1532066575.35,55286,17.13,73962.3,8.53,7.61,7.65,0,*7B
1532066576.57,55287,17.13,73960.8,8.53,7.83,7.83,0,*7E
1532066577.82,55288,17.13,73962.0,8.51,7.83,7.91,0,*70
1532066579.04,55289,17.13,73960.0,8.51,7.87,7.97,0,*73
1532066580.27,55290,17.13,73960.3,8.51,8.13,8.19,0,*70
1532066581.45,55291,17.13,73960.8,8.49,8.05,8.09,0,*7E
1532066582.65,55292,17.06,73958.8,8.51,8.23,8.23,0,*78
1532066583.9,55293,17.13,73958.8,8.51,8.29,8.33,0,*72
1532066585.13,55294,17.13,73962.3,8.49,8.29,8.37,0,*78
1532066586.31,55295,17.13,73962.0,8.49,8.45,8.45,0,*76
1532066587.54,55296,17.13,73956.8,8.53,8.55,8.59,0,*72
1532066588.77,55297,17.13,73960.0,8.51,8.13,8.19,0,*77
1532066590.02,55298,17.13,73960.0,8.51,7.77,7.83,0,*79
1532066591.23,55299,17.13,73962.0,8.49,7.59,7.69,0,*79
1532066592.41,55300,17.13,73960.0,8.49,7.51,7.59,0,*73
1532066593.61,55301,17.13,73956.8,8.47,7.37,7.45,0,*71
1532066594.87,55302,17.13,73962.3,8.47,7.65,7.77,0,*74
1532066596.13,55303,17.13,73958.0,8.47,7.77,7.77,0,*76
1532066597.39,55304,17.13,73960.8,8.47,7.95,7.95,0,*71
1532066598.64,55305,17.13,73962.0,8.47,7.83,7.91,0,*73
1532066599.85,55306,17.13,73962.5,8.45,7.95,8.01,0,*73
1532066601.08,55307,17.13,73958.5,8.45,7.83,7.91,0,*73
1532066602.31,55308,17.13,73960.8,8.45,7.65,7.77,0,*7C
1532066603.55,55309,17.13,73958.5,8.45,7.69,7.77,0,*71
1532066604.78,55310,17.13,73958.5,8.45,7.65,7.69,0,*7A
1532066606.03,55311,17.06,73956.8,8.41,7.77,7.87,0,*7C
1532066607.24,55312,17.13,73958.3,8.45,7.95,8.01,0,*76
1532066608.46,55313,17.13,73960.3,8.45,8.15,8.13,0,*73
1532066609.67,55314,17.13,73956.8,8.45,7.79,7.83,0,*77
1532066610.9,55315,17.13,73958.0,8.45,7.77,7.69,0,*7C
1532066612.11,55316,17.13,73960.0,8.45,7.83,7.79,0,*75
1532066613.29,55317,17.13,73956.0,8.45,8.05,8.15,0,*70
1532066614.5,55318,17.13,73958.5,8.41,8.19,8.27,0,*77
1532066615.74,55319,17.13,73956.5,8.45,8.37,8.37,0,*7F
1532066616.97,55320,17.06,73956.5,8.45,8.33,8.37,0,*71
1532066618.2,55321,17.13,73956.8,8.45,8.37,8.37,0,*74
1532066619.38,55322,17.13,73956.8,8.45,8.45,8.45,0,*77
1532066620.59,55323,17.13,73956.8,8.45,8.45,8.37,0,*73
1532066621.77,55324,17.13,73958.3,8.45,8.45,8.45,0,*71
1532066623.03,55325,17.13,73958.8,8.47,8.47,8.47,0,*72
1532066624.26,55326,17.13,73958.3,8.45,8.47,8.51,0,*74
1532066625.51,55327,17.13,73956.8,8.47,8.51,8.51,0,*70
1532066626.75,55328,17.13,73960.5,8.45,8.51,8.59,0,*75
1532066627.98,55329,17.13,73958.3,8.45,8.37,8.37,0,*7C
1532066629.17,55330,17.06,73958.5,8.49,8.19,8.27,0,*75
1532066630.4,55331,17.13,73958.5,8.49,7.87,7.95,0,*7A
1532066631.59,55332,17.13,73958.0,8.45,7.79,7.79,0,*76
1532066632.82,55333,17.06,73956.8,8.47,8.01,7.95,0,*77
1532066634.01,55334,17.13,73960.0,8.49,8.27,8.27,0,*7C
1532066635.22,55335,17.13,73958.0,8.45,8.27,8.33,0,*74
1532066636.45,55336,17.13,73962.0,8.47,8.45,8.37,0,*75
1532066637.63,55337,17.13,73960.8,8.45,8.45,8.45,0,*73
1532066638.88,55338,17.13,73962.0,8.47,8.37,8.37,0,*7E
1532066640.14,55339,17.13,73958.0,8.47,8.37,8.37,0,*7F
1532066641.37,55340,17.13,73956.0,8.49,8.51,8.55,0,*7B
1532066642.61,55341,17.13,73964.0,8.49,8.55,8.55,0,*7E
1532066643.86,55342,17.13,73960.8,8.51,8.51,8.55,0,*70
1532066645.07,55343,17.13,73962.0,8.51,8.01,8.09,0,*7D
1532066646.24,55344,17.13,73962.0,8.49,8.05,7.97,0,*7F
1532066647.42,55345,17.13,73960.3,8.49,8.09,8.09,0,*7A
1532066648.62,55346,17.13,73958.8,8.49,8.27,8.29,0,*77
1532066649.85,55347,17.13,73960.0,8.49,8.37,8.41,0,*79
1532066651.08,55348,17.13,73962.3,8.49,8.37,8.37,0,*77
1532066652.31,55349,17.13,73962.5,8.49,8.37,8.41,0,*77
1532066653.54,55350,17.13,73956.5,8.49,8.47,8.47,0,*7E
1532066654.76,55351,17.13,73960.0,8.49,8.51,8.51,0,*7F
1532066655.99,55352,17.13,73958.0,8.49,8.51,8.55,0,*78
1532066657.22,55353,17.13,73958.8,8.49,8.47,8.47,0,*7D
1532066658.45,55354,17.13,73958.3,8.49,8.47,8.51,0,*7D
1532066659.71,55355,17.13,73960.0,8.51,8.51,8.55,0,*76
1532066660.94,55356,17.13,73960.8,8.49,8.47,8.47,0,*78
1532066662.19,55357,17.13,73958.0,8.51,8.59,8.55,0,*7C
1532066663.42,55358,17.13,73962.5,8.51,8.59,8.69,0,*7C
1532066664.62,55359,17.13,73958.0,8.51,8.69,8.79,0,*7F
1532066665.88,55360,17.13,73956.8,8.51,8.55,8.59,0,*78
1532066667.13,55361,17.13,73958.0,8.51,8.33,8.41,0,*70
1532066668.39,55362,17.13,73962.0,8.51,8.55,8.55,0,*76
1532066669.65,55363,17.13,73960.0,8.51,8.55,8.51,0,*73
1532066670.89,55364,17.13,73958.5,8.51,8.33,8.29,0,*7B
1532066672.15,55365,17.13,73960.3,8.51,8.41,8.41,0,*71
1532066673.4,55366,17.13,73956.8,8.51,8.33,8.41,0,*77
1532066674.65,55367,17.13,73960.3,8.51,8.33,8.33,0,*73
1532066675.9,55368,17.06,73956.8,8.51,8.29,8.41,0,*72
1532066677.15,55369,17.13,73958.0,8.55,8.47,8.55,0,*7A
1532066678.41,55370,17.13,73956.8,8.51,8.51,8.51,0,*75
1532066679.66,55371,17.13,73960.8,8.51,8.41,8.51,0,*75
1532066680.9,55372,17.06,73958.5,8.51,8.29,8.29,0,*77
1532066682.1,55373,17.13,73960.0,8.51,8.45,8.45,0,*76
1532066683.34,55374,17.13,73960.8,8.53,8.51,8.55,0,*77
1532066684.57,55375,17.13,73958.5,8.53,8.59,8.59,0,*72
1532066685.81,55376,17.13,73960.0,8.53,8.59,8.59,0,*71
1532066687.04,55377,17.13,73958.8,8.53,8.51,8.51,0,*70
1532066688.28,55378,17.13,73960.0,8.53,8.55,8.59,0,*73
1532066689.5,55379,17.13,73960.3,8.53,8.51,8.51,0,*7E
1532066690.74,55380,17.13,73960.3,8.53,8.59,8.59,0,*78
1532066691.92,55381,17.13,73962.5,8.53,8.69,8.69,0,*79
1532066693.14,55382,17.13,73960.3,8.55,8.69,8.71,0,*75
1532066694.36,55383,17.13,73962.5,8.55,8.71,8.69,0,*74
1532066695.58,55384,17.13,73962.8,8.55,8.69,8.71,0,*73
1532066696.81,55385,17.13,73960.3,8.55,8.69,8.71,0,*72
1532066698.0,55386,17.13,73962.5,8.55,8.69,8.69,0,*78
1532066699.24,55387,17.13,73960.8,8.57,8.55,8.55,0,*7B
1532066700.48,55388,17.13,73962.8,8.57,8.55,8.55,0,*74
1532066701.66,55389,17.13,73960.8,8.57,8.61,8.61,0,*75
1532066702.85,55390,17.13,73960.5,8.57,8.69,8.71,0,*74
1532066704.09,55391,17.13,73958.5,8.57,8.47,8.55,0,*7F
1532066705.28,55392,17.13,73960.5,8.57,8.23,8.27,0,*7B
1532066706.51,55393,17.13,73962.0,8.57,8.37,8.37,0,*7E
1532066707.73,55394,17.13,73960.8,8.57,8.47,8.47,0,*79
1532066708.91,55395,17.13,73958.8,8.57,8.69,8.61,0,*70
1532066710.09,55396,17.13,73962.8,8.57,8.61,8.61,0,*7B
1532066711.32,55397,17.13,73960.8,8.57,8.55,8.55,0,*7A
1532066712.5,55398,17.13,73962.0,8.57,8.45,8.45,0,*75
1532066713.76,55399,17.13,73960.0,8.59,8.47,8.51,0,*7D
1532066714.99,55400,17.13,73960.8,8.57,8.55,8.59,0,*7F
1532066716.22,55401,17.13,73960.3,8.59,8.59,8.65,0,*73
1532066717.39,55402,17.13,73962.3,8.57,8.61,8.69,0,*79
1532066718.64,55403,17.13,73962.5,8.59,8.75,8.75,0,*7E
1532066719.84,55404,17.13,73962.8,8.57,8.71,8.83,0,*7A
1532066721.05,55405,17.13,73962.5,8.59,8.83,8.87,0,*7C
1532066722.26,55406,17.13,73960.5,8.57,8.59,8.69,0,*76
1532066723.45,55407,17.13,73958.8,8.59,8.61,8.65,0,*7E
1532066724.65,55408,17.13,73960.0,8.59,8.65,8.65,0,*75
1532066725.9,55409,17.13,73962.5,8.59,8.71,8.75,0,*70
1532066727.15,55410,17.13,73960.8,8.59,8.75,8.75,0,*7C
1532066728.37,55411,17.13,73960.5,8.59,8.65,8.71,0,*78
1532066729.6,55412,17.13,73958.3,8.59,8.65,8.71,0,*7B
1532066730.82,55413,17.13,73960.5,8.59,8.75,8.87,0,*72
1532066732.06,55414,17.13,73960.3,8.63,8.87,8.89,0,*7F
1532066733.26,55415,17.13,73960.0,8.65,8.65,8.75,0,*77
1532066734.44,55416,17.13,73960.0,8.65,8.61,8.61,0,*75
1532066735.61,55417,17.13,73962.8,8.65,8.65,8.65,0,*74
1532066736.86,55418,17.13,73962.8,8.63,8.51,8.51,0,*7D
1532066738.1,55419,17.13,73958.8,8.65,8.55,8.55,0,*7A
1532066739.3,55420,17.13,73960.0,8.63,8.65,8.65,0,*76
1532066740.48,55421,17.13,73960.8,8.65,8.69,8.69,0,*71
1532066741.67,55422,17.13,73958.8,8.65,8.79,8.87,0,*73
1532066742.92,55423,17.13,73958.8,8.63,8.89,8.97,0,*7A
1532066744.13,55424,17.13,73958.3,8.65,8.75,8.87,0,*79
1532066745.32,55425,17.13,73962.0,8.65,8.69,8.75,0,*78
1532066746.55,55426,17.13,73960.5,8.65,8.75,8.75,0,*76
1532066747.73,55427,17.13,73962.8,8.65,8.61,8.61,0,*77
1532066748.93,55428,17.13,73960.5,8.63,8.61,8.61,0,*7E
1532066750.19,55429,17.13,73962.5,8.67,8.59,8.59,0,*7B
1532066751.43,55430,17.13,73958.0,8.65,8.55,8.51,0,*75
1532066752.6,55431,17.13,73960.8,8.65,8.65,8.69,0,*7C
1532066753.8,55432,17.13,73960.8,8.63,8.61,8.65,0,*71
1532066754.98,55433,17.13,73960.0,8.65,8.69,8.69,0,*72
1532066756.15,55434,17.13,73960.8,8.65,8.61,8.69,0,*7D
1532066757.33,55435,17.13,73960.5,8.65,8.61,8.65,0,*70
1532066758.51,55436,17.06,73956.3,8.65,8.61,8.69,0,*7F
1532066759.68,55437,17.13,73958.0,8.65,8.69,8.79,0,*77
1532066760.87,55438,17.13,73960.3,8.65,8.79,8.79,0,*79
1532066762.07,55439,17.13,73964.3,8.67,8.83,8.83,0,*7A
1532066763.31,55440,17.13,73960.8,8.69,8.89,8.89,0,*7A
1532066764.49,55441,17.13,73960.0,8.69,8.79,8.79,0,*7B
1532066765.7,55442,17.13,73956.3,8.67,8.79,8.83,0,*73
1532066766.91,55443,17.13,73958.8,8.67,8.79,8.79,0,*77
1532066768.12,55444,17.13,73960.3,8.67,8.79,8.79,0,*70
1532066769.33,55445,17.13,73960.0,8.69,8.79,8.89,0,*70
1532066770.56,55446,17.13,73956.8,8.69,8.93,8.93,0,*7C
1532066771.79,55447,17.13,73960.5,8.69,8.89,8.93,0,*76
1532066773.0,55448,17.13,73962.5,8.69,9.01,9.03,0,*70
1532066774.21,55449,17.13,73962.5,8.71,9.03,9.07,0,*7E
1532066775.44,55450,17.13,73962.8,8.71,8.97,9.03,0,*7E
1532066776.67,55451,17.13,73960.5,8.71,8.87,8.93,0,*76
1532066777.9,55452,17.13,73956.5,8.71,8.87,8.97,0,*71
1532066779.08,55453,17.13,73958.5,8.73,8.79,8.87,0,*72
1532066780.26,55454,17.06,73956.3,8.73,8.45,8.45,0,*74
1532066781.47,55455,17.13,73962.5,8.71,8.19,8.27,0,*7A
1532066782.7,55456,17.13,73956.8,8.69,8.33,8.37,0,*79
1532066783.93,55457,17.13,73958.0,8.69,8.59,8.59,0,*7C
1532066785.17,55458,17.13,73962.0,8.69,8.47,8.55,0,*70
1532066786.37,55459,17.13,73958.8,8.71,8.61,8.61,0,*7B
1532066787.59,55460,17.13,73958.3,8.71,8.69,8.75,0,*7C
1532066788.8,55461,17.13,73960.3,8.71,8.83,8.87,0,*74
1532066790.03,55462,17.13,73962.0,8.71,8.83,8.93,0,*72
1532066791.26,55463,17.13,73960.3,8.71,8.59,8.61,0,*79
1532066792.49,55464,17.13,73960.5,8.69,8.37,8.47,0,*7B
1532066793.69,55465,17.13,73960.3,8.69,8.69,8.71,0,*74
1532066794.91,55466,17.13,73962.5,8.71,8.75,8.87,0,*7A
1532066796.15,55467,17.13,73958.5,8.71,8.87,8.93,0,*73
1532066797.37,55468,17.13,73958.8,8.73,8.71,8.71,0,*7B
1532066798.53,55469,17.13,73958.0,8.73,8.65,8.65,0,*7A
1532066799.78,55470,17.13,73960.8,8.71,8.75,8.75,0,*70
1532066801.03,55471,17.13,73962.0,8.71,8.75,8.75,0,*71
1532066802.28,55472,17.13,73960.3,8.71,8.75,8.75,0,*72
1532066803.5,55473,17.13,73962.8,8.71,8.69,8.75,0,*7E
1532066804.69,55474,17.13,73956.8,8.73,8.71,8.69,0,*7F
1532066805.92,55475,17.13,73960.3,8.73,8.71,8.75,0,*73
1532066807.14,55476,17.13,73960.0,8.71,8.51,8.61,0,*75
1532066808.39,55477,17.13,73960.0,8.71,8.41,8.41,0,*77
1532066809.63,55478,17.13,73958.0,8.73,8.55,8.51,0,*7E
1532066810.88,55479,17.13,73960.0,8.71,8.41,8.41,0,*79
1532066812.08,55480,17.13,73956.5,8.71,8.61,8.61,0,*7F
1532066813.31,55481,17.13,73960.3,8.71,8.59,8.69,0,*7D
1532066814.56,55482,17.13,73960.8,8.71,8.37,8.47,0,*7A
1532066815.77,55483,17.13,73960.5,8.71,8.27,8.27,0,*7C
1532066817.01,55484,17.13,73962.0,8.71,8.29,8.29,0,*7B
1532066818.24,55485,17.13,73960.5,8.69,8.59,8.59,0,*73
1532066819.47,55486,17.13,73960.8,8.71,8.61,8.59,0,*72
1532066820.67,55487,17.13,73956.5,8.69,8.59,8.65,0,*7E
1532066821.87,55488,17.13,73960.8,8.69,8.59,8.65,0,*71
1532066823.13,55489,17.13,73960.3,8.71,8.37,8.41,0,*77
1532066824.38,55490,17.13,73960.5,8.71,8.37,8.37,0,*7E
1532066825.63,55491,17.13,73960.0,8.71,8.47,8.47,0,*7F
1532066826.84,55492,17.13,73962.3,8.69,8.13,8.15,0,*73
1532066828.05,55493,17.13,73962.5,8.71,8.19,8.27,0,*70
1532066829.3,55494,17.13,73962.8,8.71,8.29,8.37,0,*75
1532066830.55,55495,17.13,73962.3,8.71,8.29,8.37,0,*74
1532066831.76,55496,17.13,73960.8,8.69,8.27,8.33,0,*74
1532066833.01,55497,17.13,73962.3,8.71,8.41,8.47,0,*7F
1532066834.22,55498,17.13,73960.8,8.69,8.37,8.45,0,*7A
1532066835.43,55499,17.13,73962.5,8.69,8.13,8.23,0,*7D
1532066836.63,55500,17.13,73958.8,8.67,8.01,8.01,0,*71
1532066837.83,55501,17.13,73962.0,8.67,8.05,8.05,0,*70
1532066839.02,55502,17.13,73960.3,8.69,8.15,8.23,0,*78
1532066840.22,55503,17.13,73960.5,8.67,8.15,8.23,0,*77
1532066841.43,55504,17.13,73962.3,8.67,8.23,8.23,0,*75
1532066842.65,55505,17.13,73962.0,8.67,8.27,8.27,0,*74
1532066843.83,55506,17.13,73966.0,8.65,8.45,8.45,0,*75
1532066845.06,55507,17.13,73958.5,8.65,8.41,8.55,0,*71
1532066846.31,55508,17.13,73962.3,8.67,7.87,7.87,0,*79
1532066847.55,55509,17.13,73960.5,8.65,7.65,7.73,0,*7D
1532066848.8,55510,17.13,73962.3,8.63,7.83,7.87,0,*70
1532066850.01,55511,17.13,73956.8,8.63,8.19,8.19,0,*75
1532066851.24,55512,17.13,73962.0,8.63,8.45,8.55,0,*77
1532066852.47,55513,17.13,73960.8,8.65,8.51,8.55,0,*75
1532066853.7,55514,17.13,73960.0,8.65,8.51,8.51,0,*76
1532066854.94,55515,17.13,73960.3,8.65,8.51,8.55,0,*73
1532066856.17,55516,17.13,73962.3,8.65,8.51,8.55,0,*70
1532066857.34,55517,17.13,73962.5,8.65,8.61,8.65,0,*71
1532066858.54,55518,17.13,73956.8,8.63,8.61,8.69,0,*74
1532066859.8,55519,17.13,73958.3,8.67,8.55,8.47,0,*7A
1532066861.01,55520,17.13,73958.5,8.65,8.41,8.45,0,*75
1532066862.19,55521,17.13,73962.3,8.65,8.45,8.45,0,*70
1532066863.4,55522,17.13,73960.8,8.65,8.51,8.45,0,*76
1532066864.58,55523,17.13,73956.0,8.65,8.01,8.09,0,*7A
1532066865.79,55524,17.13,73962.8,8.65,8.41,8.45,0,*71
1532066867.03,55525,17.13,73958.8,8.65,8.55,8.55,0,*74
1532066868.26,55526,17.13,73958.0,8.65,8.51,8.51,0,*77
1532066869.43,55527,17.13,73962.0,8.65,8.65,8.65,0,*76
1532066870.61,55528,17.13,73962.3,8.65,8.69,8.69,0,*79
1532066871.79,55529,17.13,73956.5,8.65,8.61,8.69,0,*70
1532066873.02,55530,17.13,73958.5,8.65,8.29,8.33,0,*7B
1532066874.27,55531,17.13,73956.8,8.67,8.59,8.59,0,*73
1532066875.51,55532,17.13,73962.3,8.69,8.55,8.59,0,*72
1532066876.76,55533,17.13,73960.0,8.67,8.59,8.71,0,*7B
1532066877.94,55534,17.13,73958.8,8.69,8.65,8.65,0,*78
1532066879.16,55535,17.13,73958.8,8.67,8.65,8.71,0,*72
1532066880.41,55536,17.13,73958.5,8.71,8.75,8.71,0,*77
1532066881.62,55537,17.13,73960.5,8.69,8.79,8.89,0,*74
1532066882.8,55538,17.13,73958.8,8.69,8.79,8.79,0,*74
1532066883.97,55539,17.13,73958.8,8.69,8.65,8.65,0,*75
1532066885.21,55540,17.13,73958.0,8.69,8.55,8.55,0,*7B
1532066886.44,55541,17.13,73960.8,8.69,8.47,8.47,0,*7A
1532066887.62,55542,17.13,73958.0,8.69,8.65,8.69,0,*75
1532066888.79,55543,17.13,73960.3,8.69,8.65,8.65,0,*78
1532066890.0,55544,17.13,73956.5,8.69,8.45,8.55,0,*7E
1532066891.24,55545,17.13,73956.5,8.69,8.47,8.55,0,*7D
1532066892.44,55546,17.13,73960.8,8.71,8.61,8.61,0,*74
1532066893.63,55547,17.13,73962.3,8.71,8.61,8.69,0,*7D
1532066894.89,55548,17.13,73958.3,8.71,8.41,8.37,0,*7B
1532066896.13,55549,17.13,73960.3,8.71,8.29,8.29,0,*7B
1532066897.39,55550,17.13,73958.3,8.71,8.41,8.47,0,*75
1532066898.6,55551,17.13,73956.5,8.69,8.47,8.45,0,*79
1532066899.83,55552,17.13,73960.0,8.69,8.47,8.47,0,*78
1532066901.04,55553,17.13,73960.0,8.69,8.27,8.33,0,*7C
1532066902.29,55554,17.13,73958.3,8.71,8.41,8.41,0,*77
1532066903.53,55555,17.13,73960.3,8.69,8.13,8.13,0,*7F
1532066904.71,55556,17.13,73960.5,8.69,8.15,8.23,0,*79
1532066905.94,55557,17.13,73956.5,8.69,8.55,8.47,0,*7E
1532066907.15,55558,17.13,73960.0,8.69,8.59,8.65,0,*7D
1532066908.35,55559,17.13,73960.5,8.69,8.65,8.71,0,*76
1532066909.52,55560,17.13,73958.8,8.69,8.65,8.65,0,*79
1532066910.75,55561,17.13,73962.5,8.67,8.23,8.33,0,*77
1532066911.96,55562,17.13,73956.0,8.71,8.27,8.27,0,*72
1532066913.15,55563,17.13,73958.3,8.69,8.27,8.27,0,*7A
1532066914.38,55564,17.13,73958.3,8.69,8.37,8.47,0,*7A
1532066915.61,55565,17.13,73960.3,8.69,8.33,8.37,0,*78
1532066916.87,55566,17.13,73962.8,8.67,8.47,8.47,0,*71
1532066918.1,55567,17.13,73962.3,8.69,8.47,8.47,0,*7E
1532066919.36,55568,17.13,73962.3,8.67,8.55,8.59,0,*73
1532066920.59,55569,17.13,73962.8,8.69,8.71,8.71,0,*70
1532066921.81,55570,17.13,73958.0,8.71,8.69,8.71,0,*78
1532066923.04,55571,17.13,73962.3,8.69,8.33,8.37,0,*7D
1532066924.25,55572,17.13,73958.8,8.69,8.13,8.23,0,*79
1532066925.46,55573,17.13,73960.3,8.69,8.13,8.15,0,*7D
1532066926.67,55574,17.13,73962.8,8.67,8.27,8.27,0,*72
1532066927.88,55575,17.13,73960.0,8.69,8.27,8.33,0,*78
1532066929.1,55576,17.13,73962.8,8.67,8.45,8.47,0,*72
1532066930.34,55577,17.13,73962.0,8.69,8.55,8.59,0,*73
1532066931.58,55578,17.13,73960.8,8.69,8.55,8.55,0,*70
1532066932.81,55579,17.13,73960.8,8.67,8.33,8.45,0,*7E